Regional Weather Roundup
Issued by NWS

Home | Current Version | Previous Version | Graphics & Text | Print | Product List | Glossary On
Versions: 1 2 3 4 5 6 7 8 9 10 11 12 13 14 15 16 17 18 19 20 21 22 23 24 25 26 27 28 29 30 31 32 33 34 35 36 37 38 39 40 41 42 43 44 45 46 47 48 49
000
ASUS45 KBOU 221407
RWRCO

WEATHER ROUNDUP FOR COLORADO
NATIONAL WEATHER SERVICE DENVER/BOULDER CO
700 AM MST MON DEC 22 2014

NOTE: "FAIR" INDICATES FEW OR NO CLOUDS BELOW 12000 FEET WITH NO
SIGNIFICANT WEATHER AND/OR OBSTRUCTIONS TO VISIBILITY.

COZ001>005-013-030-031-221500-
...NORTHWEST COLORADO...

CITY           SKY/WX    TMP DP  RH WIND       PRES   REMARKS
CRAIG          CLOUDY    32  26  78 W15       29.84F WCI  22
HAYDEN         CLOUDY    30  23  74 W13       29.82F WCI  20
MEEKER         CLOUDY    34  25  69 W5        29.86F WCI  30
MOUNT WERNER   NOT AVBL
STEAMBOAT SPGS CLOUDY    29  22  73 W12G22    29.81F WCI  20
WALDEN         CLOUDY    14  10  85 SE3       29.77S
$$

COZ006>008-011-221500-
...WEST CENTRAL VALLEYS...

CITY           SKY/WX    TMP DP  RH WIND       PRES   REMARKS
GRAND JUNCTION CLOUDY    32  31  96 NE7       29.87F WCI  26
MONTROSE       CLOUDY    33  31  92 SE6       29.88F WCI  28
EAGLE          CLOUDY    30  27  86 CALM      29.85F
RIFLE          LGT RAIN  35  31  85 SW7       29.87S WCI  29
DELTA          LGT RAIN  35  33  92 CALM      29.88R
NUCLA          CLOUDY    36  32  87 E8        29.94F
$$

COZ017>023-064>068-221500-
...SOUTHWEST COLORADO...

CITY           SKY/WX    TMP DP  RH WIND       PRES   REMARKS
DURANGO        MOCLDY    41  27  57 W25G35    29.85F
CORTEZ         PTCLDY    34  31  88 CALM      29.93F
PAGOSA SPRINGS CLOUDY    29  29 100 CALM      29.84F
TELLURIDE      LGT SNOW  31  28  89 W17G32    29.94S WCI  19
WOLF CREEK PAS LGT SNOW  19  19 100 MISG      29.85F VSB 3/4
$$

COZ009-010-012-014-032>034-037-058>063-221500-
...CENTRAL COLORADO...

CITY           SKY/WX    TMP DP  RH WIND       PRES   REMARKS
ASPEN          LGT SNOW  27  23  85 N6        29.83S FOG     WCI  20
BUENA VISTA    CLOUDY    28  23  81 NW9       29.77R WCI  19
COPPER MTN     CLOUDY    14   9  79 W17       29.74R WCI  -3
BERTHOUD PASS  HVY SNOW   7   1  78 MISG      29.65R VSB<1/4
COTTONWOOD PAS LGT SNOW  28  19  69 N5        29.76R WCI  23
GUNNISON       CLOUDY    30  25  80 N7        29.82S WCI  23
KREMMLING      CLOUDY    28  23  80 W3        29.82S
LEADVILLE      LGT SNOW  17  15  92 N8        29.75S FOG     WCI   7
SALIDA         CLOUDY    32  30  92 SW5       29.85R WCI  27
SUNLIGHT       CLOUDY   N/A N/A N/A MISG      29.84F
WILKERSON PASS CLOUDY    14  12  92 NW12G25   29.76R FOG     WCI   0
$$

COZ069>075-221500-
...SAN LUIS VALLEY/SANGRE DE CRISTO MOUNTAINS...

CITY           SKY/WX    TMP DP  RH WIND       PRES   REMARKS
ALAMOSA        CLOUDY    26  25  96 SE6       29.77F WCI  19
LA VETA PASS   NOT AVBL
SAGUACHE       LGT SNOW  30  30 100 N7        29.78R VSB 3/4 WCI  23
$$

COZ035-036-038>040-221500-
...NORTHERN COLORADO FRONT RANGE...

CITY           SKY/WX    TMP DP  RH WIND       PRES   REMARKS
DENVER INTL AP MOCLDY    28  22  78 SW5       29.74S WCI  23
DMNS CITY PARK   N/A     29  29  98 E6        29.74S WCI  23
AURORA         MOCLDY    28  25  89 S5        29.75S WCI  22
FRONT RANGE AP PTCLDY    32  25  74 W6        29.75R WCI  26
ERIE MUNI ARPT   N/A     28  28  99 CALM      29.74S
BOULDER MUN AP MOCLDY    36  21  55 NW7       29.74F
CENTENNIAL     MOCLDY    25  24  96 S6        29.74S WCI  18
BROOMFIELD     MOCLDY    30  28  93 W5        29.74S WCI  25
FORT COLLINS   PTCLDY    37  16  41 NW13      29.74F
LONGMONT       PTCLDY    30  27  89 CALM      29.76F
$$

COZ041-046-047-076>085-087-088-221500-
...PIKES PEAK/PALMER DIVIDE AND SOUTHERN FOOTHILLS...

CITY           SKY/WX    TMP DP  RH WIND       PRES   REMARKS
COLO. SPRINGS  MOCLDY    32  24  72 NW10      29.76S WCI  24
A. F. ACADEMY  MOCLDY    26  22  82 N7        29.75S WCI  19
ELLICOTT       NOT AVBL
FALCON         MOCLDY    26  24  92 N6        29.75S WCI  19
FORT CARSON    MOCLDY    31  29  90 W7        29.75S WCI  24
LIMON          PTCLDY    28  23  81 NW10      29.75R WCI  19
MONUMENT HILL  CLOUDY    25  23  93 N3        29.73S
TRINIDAD       CLOUDY    31  29  92 S5        29.80S WCI  26
$$

COZ042>045-048>051-090-091-221500-
...NORTHEAST COLORADO...

CITY           SKY/WX    TMP DP  RH WIND       PRES   REMARKS
GREELEY ARPT   CLEAR     28  16  59 N8        29.73S WCI  20
AKRON          CLOUDY    32  27  81 NW16      29.73R WCI  21
BURLINGTON     PTCLDY    34  26  72 NW23      29.71R WCI  22
WRAY           CLOUDY    37  31  79 NW20G25   29.69S
STERLING       MOCLDY    36  32  87 NW22      29.69F
HOLYOKE        MOCLDY    37  30  75 NW16G28   29.67F
FORT MORGAN    MOCLDY    28  23  84 NW14      29.74S WCI  16
$$

COZ086-089-092>099-221500-
...SOUTHEAST COLORADO...

CITY           SKY/WX    TMP DP  RH WIND       PRES   REMARKS
PUEBLO         CLOUDY    33  30  88 NW7       29.77S WCI  27
LA JUNTA       CLOUDY    39  26  59 NW9       29.76R
LAMAR          MOCLDY    38  28  67 NW9       29.72S
SPRINGFIELD      N/A     35  30  82 NW10      29.72S WCI  27
$$


USA.gov is the U.S. government's official web portal to all federal, state and local government web resources and services.